Terminal Aerodrome Forecast
Issued by NWS Omaha/Valley, NE

Home | Current Version | Previous Version | Graphics & Text | Print | Product List | Glossary On
Versions: 1 2 3 4 5 6 7 8 9 10 11 12 13 14 15 16 17 18 19 20 21 22 23 24 25 26 27 28 29 30 31 32 33 34 35 36 37 38 39 40 41 42 43 44 45 46 47 48 49 50
000
FTUS43 KOAX 041720
TAFOFK
TAF
KOFK 041720Z 0418/0518 05011KT P6SM OVC100
      TEMPO 0418/0422 3SM -TSRA BKN035CB
     FM042200 07011KT P6SM OVC050
      TEMPO 0422/0501 2SM TSRA BKN025CB
     FM050200 07007KT P6SM OVC015=

USA.gov is the U.S. government's official web portal to all federal, state and local government web resources and services.